DW7779 Weather Reports


time (UTC)temp
F
wind
direction
speed
knots
gust
knots
rain 1hr
in
rain 24hr
in
rain mn
in
humidity
%
barometer
mb
20260504020040 61 4.3 17.4 0.00 0.01 0.00 69 1008.0
20260504014537 62 7.0 15.6 0.00 0.24 0.00 68 1008.2
20260504013037 61 7.0 14.8 0.00 0.24 0.00 67 1008.1
20260504011535 62 7.0 14.8 0.00 0.24 0.00 67 1008.2
20260504010041 63 5.2 8.7 0.00 0.24 0.00 65 1008.3
20260504004533 63 3.5 9.6 0.00 0.30 0.00 65 1008.3
20260504003030 62 3.5 8.7 0.00 0.30 0.00 65 1008.4
20260504001527 61 4.3 11.3 0.00 0.30 0.00 67 1008.6
20260504000025 61 3.5 8.7 0.00 0.30 0.00 68 1008.7
20260503234527 61 1.7 8.7 0.00 0.34 0.00 70 1008.8
20260503233019 59 5.2 12.2 0.00 0.34 0.00 72 1008.9
20260503231519 58 0.9 2.6 0.00 0.34 0.00 74 1008.9
20260503230019 58 0.0 4.3 0.00 0.34 0.00 75 1008.9
20260503224511 56 0.9 3.5 0.00 0.34 0.00 79 1008.9
20260503223010 54 0.0 1.7 0.00 0.34 0.00 82 1009.1
20260503221504 52 0.0 1.7 0.00 0.34 0.00 84 1009.1
20260503220004 51 0.0 1.7 0.00 0.34 0.00 85 1009.1
20260503214503 50 0.0 1.7 0.00 0.34 0.00 86 1009.0
20260503213002 50 0.0 1.7 0.00 0.34 0.00 86 1009.2
20260503211502 50 0.0 2.6 0.00 0.34 0.00 85 1009.1
20260503210001 51 0.0 0.9 0.00 0.34 0.00 84 1009.1
20260503204621 50 0.0 0.9 0.00 0.34 0.00 83 1009.1
20260503203114 50 0.0 2.6 0.00 0.34 0.00 83 1008.8
20260503201559 50 0.0 0.0 0.00 0.34 0.00 82 1008.7
20260503200059 52 0.0 1.7 0.00 0.34 0.00 80 1008.8
20260503194556 52 0.0 1.7 0.00 0.34 0.00 80 1008.7
20260503193055 51 0.0 5.2 0.00 0.34 0.00 84 1008.7
20260503191603 48 0.9 2.6 0.00 0.34 0.00 87 1008.9
20260503190051 49 0.0 0.9 0.00 0.34 0.00 85 1009.0
20260503184604 51 0.0 0.9 0.00 0.34 0.00 80 1009.2
20260503183047 52 0.0 1.7 0.00 0.34 0.00 79 1009.2
20260503181544 52 0.0 0.9 0.00 0.34 0.00 79 1009.2
20260503180043 52 0.0 0.9 0.00 0.34 0.00 79 1009.3
20260503174553 52 0.0 1.7 0.00 0.34 0.00 80 1009.5
20260503173040 52 0.0 1.7 0.00 0.34 0.00 80 1009.5
20260503171539 51 0.0 1.7 0.00 0.34 0.00 81 1009.6
20260503100108 55 0.0 0.0 0.00 0.34 0.34 84 1010.7
20260503090104 56 0.0 0.9 0.00 0.34 0.34 82 1010.3
20260503081557 58 0.0 0.9 0.00 0.34 0.34 77 1009.2
20260503071606 62 0.0 4.3 0.00 0.34 0.34 69 1008.7
20260503054555 65 5.2 11.3 0.00 0.34 0.34 63 1008.8
20260503053042 66 3.5 9.6 0.00 0.34 0.34 63 1008.7
20260503051548 66 3.5 8.7 0.00 0.34 0.34 64 1008.7
20260503050041 66 6.1 9.6 0.00 0.34 0.34 63 1008.8
20260503044539 65 3.5 9.6 0.00 0.34 0.34 68 1008.6
20260503043038 63 4.3 8.7 0.00 0.34 0.34 76 1008.5
20260503041538 60 3.5 7.8 0.00 0.34 0.34 90 1008.6
20260503040037 59 4.3 7.8 0.00 0.34 0.34 94 1008.6
20260503034543 59 1.7 3.5 0.00 0.34 0.34 96 1008.7
20260503033050 59 0.9 3.5 0.00 0.34 0.34 96 1008.8
20260503031538 59 0.0 3.5 0.00 0.34 0.34 97 1008.8
20260503030037 59 1.7 3.5 0.01 0.34 0.34 96 1008.8
20260503024544 59 1.7 5.2 0.02 0.34 0.34 97 1008.8
20260503023033 58 2.6 5.2 0.12 0.34 0.34 97 1008.9
20260503021535 57 0.9 1.7 0.22 0.34 0.34 97 1009.2